RYR169 EDDH-EGSS

Flight info

Callsign RYR169
Flight time 1h 13m
Altitude 38000
Route WSN4D WSN N125 EKNON DCT NOGRO M40 RINIS
Aircraft B38M/M-SDE1FGHILORVWXY/HB1

Departure

Time 2026-05-01 07:54
Airport Hamburg Helmut Schmidt Airport (EDDH)

Arrival

Time 2026-05-01 09:07
Airport London Stansted Airport (EGSS)
Time Latitude Longitude Altitude Speed Heading
2026-05-01 07:38 53.63290 9.99979 51 ft 0 kts 140°
2026-05-01 07:44 53.63295 9.99971 45 ft 4 kts 142°
2026-05-01 07:44 53.63327 9.99912 46 ft 4 kts 105°
2026-05-01 07:45 53.63328 9.99870 45 ft 4 kts 70°
2026-05-01 07:45 53.63318 9.99842 49 ft 0 kts 50°
2026-05-01 07:48 53.63320 9.99846 49 ft 2 kts 50°
2026-05-01 07:49 53.63336 9.99877 47 ft 6 kts 50°
2026-05-01 07:49 53.63434 10.00044 49 ft 14 kts 12°
2026-05-01 07:49 53.63511 9.99930 53 ft 17 kts 306°
2026-05-01 07:50 53.63589 9.99749 52 ft 22 kts 306°
2026-05-01 07:50 53.63784 9.99315 51 ft 22 kts 318°
2026-05-01 07:50 53.63926 9.99170 49 ft 26 kts 334°
2026-05-01 07:51 53.64102 9.99019 48 ft 30 kts 333°
2026-05-01 07:51 53.64303 9.98848 49 ft 34 kts 331°
2026-05-01 07:51 53.64523 9.98653 48 ft 37 kts 333°
2026-05-01 07:52 53.64996 9.98244 55 ft 37 kts 333°
2026-05-01 07:52 53.65233 9.98039 54 ft 40 kts 333°
2026-05-01 07:52 53.65384 9.97909 60 ft 18 kts 333°
2026-05-01 07:53 53.65470 9.97637 60 ft 18 kts 242°
2026-05-01 07:53 53.65324 9.97624 61 ft 45 kts 150°
2026-05-01 07:53 53.64786 9.98088 60 ft 127 kts 152°
2026-05-01 07:53 53.63819 9.98927 263 ft 178 kts 154°
2026-05-01 07:54 53.61517 10.00893 2605 ft 184 kts 151°
2026-05-01 07:55 53.57641 10.04219 5207 ft 217 kts 152°
2026-05-01 07:55 53.54813 10.06174 7072 ft 225 kts 172°
2026-05-01 07:56 53.51099 10.03111 9301 ft 248 kts 239°
2026-05-01 07:56 53.50201 9.97282 10623 ft 275 kts 257°
2026-05-01 07:57 53.49783 9.94030 11078 ft 295 kts 256°
2026-05-01 07:57 53.48824 9.86829 11917 ft 336 kts 256°
2026-05-01 07:58 53.47736 9.78852 13096 ft 359 kts 256°
2026-05-01 07:58 53.46609 9.70661 14693 ft 367 kts 256°
2026-05-01 07:59 53.45445 9.62253 16185 ft 373 kts 256°
2026-05-01 07:59 53.44255 9.53702 17607 ft 379 kts 256°
2026-05-01 08:00 53.41793 9.36179 20082 ft 392 kts 256°
2026-05-01 08:01 53.39857 9.22716 21774 ft 400 kts 256°
2026-05-01 08:01 53.39200 9.18167 22316 ft 403 kts 256°
2026-05-01 08:01 53.38535 9.13576 22858 ft 406 kts 256°
2026-05-01 08:02 53.37198 9.04382 23904 ft 412 kts 256°
2026-05-01 08:02 53.36514 8.99703 24339 ft 415 kts 256°
2026-05-01 08:03 53.35128 8.90255 25204 ft 420 kts 256°
2026-05-01 08:03 53.34272 8.85572 25633 ft 422 kts 249°
2026-05-01 08:03 53.32210 8.76313 26469 ft 426 kts 251°
2026-05-01 08:04 53.30187 8.66939 27298 ft 431 kts 251°
2026-05-01 08:04 53.28112 8.57492 28096 ft 435 kts 251°
2026-05-01 08:05 53.26105 8.47911 28840 ft 439 kts 254°
2026-05-01 08:05 53.25199 8.43025 29214 ft 441 kts 254°
2026-05-01 08:05 53.24273 8.38126 29572 ft 443 kts 254°
2026-05-01 08:06 53.22393 8.28275 30282 ft 448 kts 254°
2026-05-01 08:06 53.20479 8.18318 30890 ft 452 kts 254°
2026-05-01 08:07 53.18571 8.08278 31474 ft 456 kts 254°
2026-05-01 08:07 53.16677 7.98236 32131 ft 457 kts 254°
2026-05-01 08:08 53.15720 7.93189 32517 ft 456 kts 254°
2026-05-01 08:08 53.13808 7.83145 33283 ft 454 kts 254°
2026-05-01 08:09 53.11897 7.73155 34034 ft 453 kts 253°
2026-05-01 08:09 53.10940 7.68166 34385 ft 452 kts 253°
2026-05-01 08:09 53.09980 7.63192 34691 ft 451 kts 253°
2026-05-01 08:10 53.08058 7.53262 35281 ft 450 kts 253°
2026-05-01 08:10 53.06130 7.43353 35848 ft 449 kts 253°
2026-05-01 08:11 53.04208 7.33518 36386 ft 447 kts 253°
2026-05-01 08:11 53.02278 7.23698 36894 ft 446 kts 253°
2026-05-01 08:12 53.00306 7.13953 37366 ft 445 kts 252°
2026-05-01 08:12 52.99328 7.09131 37406 ft 446 kts 252°
2026-05-01 08:13 52.96365 6.94609 37374 ft 442 kts 252°
2026-05-01 08:13 52.93389 6.80127 37375 ft 442 kts 252°
2026-05-01 08:14 52.91396 6.70485 37372 ft 442 kts 252°
2026-05-01 08:14 52.89382 6.60791 37368 ft 442 kts 252°
2026-05-01 08:15 52.86379 6.46418 37366 ft 442 kts 251°
2026-05-01 08:16 52.84362 6.36815 37362 ft 442 kts 251°
2026-05-01 08:16 52.82333 6.27230 37358 ft 441 kts 251°
2026-05-01 08:17 52.80298 6.17649 37355 ft 441 kts 251°
2026-05-01 08:17 52.78254 6.08072 37358 ft 441 kts 251°
2026-05-01 08:18 52.75943 5.98709 37365 ft 441 kts 246°
2026-05-01 08:19 52.70987 5.80253 37352 ft 441 kts 246°
2026-05-01 08:19 52.68508 5.70996 37348 ft 441 kts 246°
2026-05-01 08:20 52.66020 5.61745 37347 ft 440 kts 246°
2026-05-01 08:20 52.63532 5.52527 37345 ft 440 kts 246°
2026-05-01 08:21 52.61038 5.43324 37345 ft 440 kts 246°
2026-05-01 08:21 52.58534 5.34123 37346 ft 440 kts 245°
2026-05-01 08:22 52.56093 5.25187 37343 ft 440 kts 245°
2026-05-01 08:22 52.53621 5.16174 37336 ft 440 kts 245°
2026-05-01 08:23 52.51116 5.07074 37335 ft 440 kts 245°
2026-05-01 08:23 52.49863 5.02537 37515 ft 440 kts 245°
2026-05-01 08:23 52.48595 4.97952 37731 ft 440 kts 245°
2026-05-01 08:23 52.47327 4.93378 37926 ft 439 kts 245°
2026-05-01 08:24 52.46060 4.88818 38110 ft 439 kts 245°
2026-05-01 08:24 52.44791 4.84259 38292 ft 439 kts 245°
2026-05-01 08:24 52.43520 4.79702 38338 ft 440 kts 245°
2026-05-01 08:25 52.40991 4.70661 38315 ft 438 kts 245°
2026-05-01 08:25 52.38445 4.61592 38318 ft 438 kts 245°
2026-05-01 08:26 52.35894 4.52542 38317 ft 438 kts 244°
2026-05-01 08:26 52.33335 4.43497 38312 ft 438 kts 244°
2026-05-01 08:27 52.30770 4.34464 38311 ft 437 kts 244°
2026-05-01 08:27 52.28205 4.25468 38306 ft 437 kts 244°
2026-05-01 08:28 52.25626 4.16457 38254 ft 438 kts 244°
2026-05-01 08:28 52.24334 4.11959 37971 ft 436 kts 244°
2026-05-01 08:28 52.23049 4.07488 37697 ft 436 kts 244°
2026-05-01 08:28 52.21759 4.03012 37430 ft 436 kts 244°
2026-05-01 08:29 52.20466 3.98532 37167 ft 436 kts 244°
2026-05-01 08:29 52.19195 3.94139 36909 ft 435 kts 244°
2026-05-01 08:29 52.17901 3.89670 36655 ft 435 kts 243°
2026-05-01 08:29 52.16606 3.85212 36400 ft 435 kts 243°
2026-05-01 08:30 52.15311 3.80760 36153 ft 435 kts 243°
2026-05-01 08:30 52.14012 3.76302 35905 ft 435 kts 243°
2026-05-01 08:30 52.12715 3.71858 35657 ft 435 kts 243°
2026-05-01 08:30 52.11416 3.67417 35414 ft 433 kts 243°
2026-05-01 08:31 52.10123 3.63004 35172 ft 431 kts 243°
2026-05-01 08:31 52.08833 3.58610 34930 ft 430 kts 243°
2026-05-01 08:31 52.07548 3.54242 34689 ft 428 kts 243°
2026-05-01 08:31 52.06265 3.49887 34442 ft 424 kts 243°
2026-05-01 08:32 52.04995 3.45582 33825 ft 423 kts 243°
2026-05-01 08:32 52.03725 3.41284 33239 ft 421 kts 242°
2026-05-01 08:32 52.02462 3.37017 32805 ft 416 kts 242°
2026-05-01 08:32 52.01214 3.32807 32361 ft 412 kts 242°
2026-05-01 08:33 51.99976 3.28638 31876 ft 409 kts 242°
2026-05-01 08:33 51.98745 3.24495 31394 ft 407 kts 242°
2026-05-01 08:33 51.97519 3.20378 30926 ft 404 kts 242°
2026-05-01 08:33 51.96583 3.16084 30394 ft 408 kts 257°
2026-05-01 08:34 51.96307 3.11494 29858 ft 407 kts 261°
2026-05-01 08:34 51.96012 3.07013 29412 ft 402 kts 261°
2026-05-01 08:34 51.95706 3.02529 28967 ft 399 kts 261°
2026-05-01 08:34 51.95401 2.98070 28522 ft 396 kts 261°
2026-05-01 08:35 51.95098 2.93643 28085 ft 392 kts 260°
2026-05-01 08:35 51.94797 2.89268 27655 ft 390 kts 260°
2026-05-01 08:35 51.94496 2.84914 27226 ft 387 kts 260°
2026-05-01 08:35 51.94195 2.80596 26808 ft 384 kts 260°
2026-05-01 08:36 51.93895 2.76306 26394 ft 382 kts 260°
2026-05-01 08:36 51.93595 2.72041 25991 ft 380 kts 260°
2026-05-01 08:36 51.93297 2.67795 25584 ft 378 kts 260°
2026-05-01 08:36 51.93008 2.63567 25132 ft 378 kts 260°
2026-05-01 08:37 51.92723 2.59401 24750 ft 376 kts 259°
2026-05-01 08:37 51.92434 2.55207 24362 ft 374 kts 259°
2026-05-01 08:37 51.92144 2.51026 23975 ft 372 kts 259°
2026-05-01 08:37 51.91855 2.46866 23551 ft 371 kts 259°
2026-05-01 08:38 51.91564 2.42718 23125 ft 369 kts 259°
2026-05-01 08:38 51.91373 2.39990 22870 ft 367 kts 259°
2026-05-01 08:38 51.91084 2.35904 22502 ft 364 kts 259°
2026-05-01 08:38 51.90835 2.31847 22139 ft 362 kts 264°
2026-05-01 08:39 51.90766 2.27762 21709 ft 362 kts 264°
2026-05-01 08:39 51.90683 2.23699 21341 ft 360 kts 264°
2026-05-01 08:39 51.90590 2.19658 20964 ft 358 kts 263°
2026-05-01 08:39 51.90490 2.15642 20584 ft 356 kts 263°
2026-05-01 08:40 51.90283 2.07663 19829 ft 353 kts 263°
2026-05-01 08:40 51.90178 2.03695 19449 ft 352 kts 263°
2026-05-01 08:40 51.90072 1.99755 19076 ft 350 kts 263°
2026-05-01 08:41 51.89964 1.95810 18706 ft 349 kts 263°
2026-05-01 08:41 51.89860 1.91885 18298 ft 349 kts 265°
2026-05-01 08:41 51.90198 1.87971 17792 ft 357 kts 286°
2026-05-01 08:41 51.91255 1.84320 17444 ft 357 kts 294°
2026-05-01 08:42 51.92393 1.80761 17051 ft 355 kts 294°
2026-05-01 08:42 51.93544 1.77209 16656 ft 354 kts 295°
2026-05-01 08:42 51.94696 1.73685 16253 ft 353 kts 295°
2026-05-01 08:42 51.95830 1.70227 15862 ft 352 kts 295°
2026-05-01 08:43 51.96980 1.66725 15467 ft 351 kts 295°
2026-05-01 08:43 51.98129 1.63224 15073 ft 351 kts 295°
2026-05-01 08:43 51.99275 1.59730 14676 ft 350 kts 295°
2026-05-01 08:43 52.00424 1.56224 14280 ft 350 kts 295°
2026-05-01 08:44 52.01564 1.52737 13859 ft 349 kts 295°
2026-05-01 08:44 52.02701 1.49254 13435 ft 348 kts 295°
2026-05-01 08:44 52.03833 1.45785 13030 ft 347 kts 295°
2026-05-01 08:44 52.04958 1.42329 12635 ft 345 kts 295°
2026-05-01 08:45 52.06240 1.39051 12281 ft 345 kts 310°
2026-05-01 08:45 52.08128 1.36702 12011 ft 342 kts 334°
2026-05-01 08:45 52.10393 1.35687 11848 ft 334 kts 357°
2026-05-01 08:45 52.12648 1.36112 11753 ft 321 kts 20°
2026-05-01 08:46 52.14527 1.37814 11685 ft 303 kts 47°
2026-05-01 08:46 52.15684 1.40562 11640 ft 293 kts 72°
2026-05-01 08:46 52.16091 1.43787 11589 ft 298 kts 93°
2026-05-01 08:46 52.15738 1.47082 11525 ft 295 kts 115°
2026-05-01 08:47 52.14636 1.49862 11476 ft 293 kts 137°
2026-05-01 08:47 52.12977 1.51728 11453 ft 291 kts 158°
2026-05-01 08:47 52.11018 1.52430 11401 ft 289 kts 179°
2026-05-01 08:47 52.09080 1.51841 11448 ft 283 kts 201°
2026-05-01 08:48 52.07415 1.50138 11543 ft 286 kts 221°
2026-05-01 08:48 52.06220 1.47541 11513 ft 291 kts 242°
2026-05-01 08:48 52.05718 1.44345 11439 ft 297 kts 264°
2026-05-01 08:48 52.05624 1.40982 11305 ft 297 kts 262°
2026-05-01 08:49 52.05453 1.37638 11184 ft 297 kts 262°
2026-05-01 08:49 52.05289 1.34295 11079 ft 296 kts 262°
2026-05-01 08:49 52.05130 1.30961 10973 ft 296 kts 262°
2026-05-01 08:49 52.04972 1.27622 10886 ft 296 kts 262°
2026-05-01 08:50 52.04814 1.24291 10835 ft 295 kts 262°
2026-05-01 08:50 52.04660 1.21009 10798 ft 295 kts 262°
2026-05-01 08:50 52.04502 1.17692 10802 ft 295 kts 262°
2026-05-01 08:50 52.04343 1.14362 10798 ft 295 kts 262°
2026-05-01 08:51 52.04184 1.11045 10816 ft 295 kts 262°
2026-05-01 08:51 52.04023 1.07717 10819 ft 295 kts 262°
2026-05-01 08:51 52.03861 1.04396 10822 ft 295 kts 262°
2026-05-01 08:51 52.03700 1.01067 10812 ft 295 kts 262°
2026-05-01 08:52 52.03535 0.97745 10842 ft 295 kts 262°
2026-05-01 08:52 52.03375 0.94439 10682 ft 293 kts 262°
2026-05-01 08:52 52.03208 0.91133 10380 ft 293 kts 262°
2026-05-01 08:52 52.03050 0.87977 10123 ft 291 kts 262°
2026-05-01 08:53 52.02886 0.84702 9819 ft 289 kts 262°
2026-05-01 08:53 52.02723 0.81457 9522 ft 287 kts 262°
2026-05-01 08:53 52.02558 0.78232 9203 ft 286 kts 262°
2026-05-01 08:53 52.02395 0.75029 8923 ft 284 kts 262°
2026-05-01 08:54 52.02231 0.71830 8626 ft 282 kts 262°
2026-05-01 08:54 52.02067 0.68668 8335 ft 280 kts 262°
2026-05-01 08:54 52.01904 0.65518 8046 ft 278 kts 262°
2026-05-01 08:54 52.01741 0.62435 8000 ft 267 kts 262°
2026-05-01 08:55 52.01595 0.59503 7977 ft 254 kts 263°
2026-05-01 08:55 52.01471 0.56703 7914 ft 244 kts 263°
2026-05-01 08:55 52.01353 0.54105 7827 ft 233 kts 263°
2026-05-01 08:55 52.01235 0.51527 7790 ft 228 kts 262°
2026-05-01 08:56 52.01114 0.48903 7734 ft 237 kts 262°
2026-05-01 08:56 52.00988 0.46197 7668 ft 243 kts 263°
2026-05-01 08:56 52.00863 0.43485 7622 ft 244 kts 263°
2026-05-01 08:56 52.00735 0.40738 7529 ft 243 kts 263°
2026-05-01 08:57 52.00607 0.38000 7471 ft 243 kts 263°
2026-05-01 08:57 52.00478 0.35264 7393 ft 242 kts 263°
2026-05-01 08:57 52.00348 0.32539 7322 ft 243 kts 263°
2026-05-01 08:57 52.00215 0.29814 7153 ft 241 kts 261°
2026-05-01 08:58 51.99688 0.27285 6868 ft 237 kts 233°
2026-05-01 08:58 51.98585 0.25313 6584 ft 236 kts 225°
2026-05-01 08:58 51.97417 0.23386 6167 ft 243 kts 224°
2026-05-01 08:58 51.96196 0.21468 5799 ft 247 kts 222°
2026-05-01 08:59 51.94937 0.19536 5394 ft 250 kts 222°
2026-05-01 08:59 51.94021 0.18150 5199 ft 250 kts 221°
2026-05-01 08:59 51.92746 0.16225 4876 ft 251 kts 221°
2026-05-01 08:59 51.91466 0.14293 4572 ft 252 kts 221°
2026-05-01 09:00 51.90176 0.12351 4223 ft 254 kts 221°
2026-05-01 09:00 51.88880 0.10395 3872 ft 256 kts 221°
2026-05-01 09:00 51.87582 0.08437 3525 ft 253 kts 221°
2026-05-01 09:00 51.86299 0.06509 3169 ft 250 kts 221°
2026-05-01 09:01 51.85047 0.04601 2905 ft 244 kts 221°
2026-05-01 09:01 51.83834 0.02741 2676 ft 236 kts 221°
2026-05-01 09:01 51.82650 0.00935 2604 ft 232 kts 221°
2026-05-01 09:01 51.81489 -0.00846 2538 ft 228 kts 221°
2026-05-01 09:02 51.80265 -0.02349 2451 ft 221 kts 199°
2026-05-01 09:02 51.78822 -0.02463 2509 ft 202 kts 162°
2026-05-01 09:02 51.77569 -0.01559 2601 ft 197 kts 159°
2026-05-01 09:02 51.76330 -0.00631 2596 ft 198 kts 143°
2026-05-01 09:03 51.75538 0.01158 2516 ft 200 kts 111°
2026-05-01 09:03 51.75503 0.03382 2495 ft 204 kts 77°
2026-05-01 09:03 51.76222 0.05340 2468 ft 202 kts 47°
2026-05-01 09:03 51.77248 0.06722 2545 ft 184 kts 44°
2026-05-01 09:04 51.78204 0.08073 2536 ft 184 kts 45°
2026-05-01 09:04 51.79155 0.09486 2516 ft 183 kts 46°
2026-05-01 09:04 51.80078 0.10875 2393 ft 183 kts 46°
2026-05-01 09:04 51.81004 0.12261 2177 ft 176 kts 46°
2026-05-01 09:05 51.81876 0.13556 1962 ft 164 kts 47°
2026-05-01 09:05 51.82690 0.14780 1735 ft 155 kts 47°
2026-05-01 09:05 51.83477 0.15959 1524 ft 153 kts 46°
2026-05-01 09:05 51.84252 0.17120 1333 ft 151 kts 48°
2026-05-01 09:06 51.85017 0.18275 1169 ft 149 kts 48°
2026-05-01 09:06 51.85771 0.19407 962 ft 148 kts 47°
2026-05-01 09:06 51.86527 0.20505 826 ft 146 kts 46°
2026-05-01 09:06 51.87274 0.21595 554 ft 142 kts 48°
2026-05-01 09:07 51.87996 0.22680 357 ft 139 kts 47°
2026-05-01 09:07 51.88587 0.23614 348 ft 84 kts 43°
2026-05-01 09:07 51.88841 0.24060 351 ft 45 kts 63°
2026-05-01 09:07 51.88904 0.24352 354 ft 21 kts 73°
2026-05-01 09:08 51.88910 0.24506 352 ft 1 kts 115°
2026-05-01 09:08 51.88909 0.24505 348 ft 0 kts 144°
2026-05-01 09:09 51.88909 0.24506 348 ft 1 kts 154°